TimeCEST,TemperatureF,Dew PointF,Humidity,Sea Level PressureIn,VisibilityMPH,Wind Direction,Wind SpeedMPH,Gust SpeedMPH,PrecipitationIn,Events,Conditions,WindDirDegrees,DateUTC
12:20 AM,55.4,53.6,94,29.98,6.2,East,4.6,-,N/A,,Partly Cloudy,90,2013-05-07 22:20:00
12:50 AM,55.4,53.6,94,29.98,6.2,East,4.6,-,N/A,,Partly Cloudy,80,2013-05-07 22:50:00
1:20 AM,57.2,53.6,88,29.98,6.2,Variable,2.3,-,N/A,,Partly Cloudy,0,2013-05-07 23:20:00
1:50 AM,55.4,53.6,94,29.98,6.2,ENE,3.5,-,N/A,,Partly Cloudy,70,2013-05-07 23:50:00
2:20 AM,55.4,51.8,88,29.98,6.2,ENE,4.6,-,N/A,,Partly Cloudy,70,2013-05-08 00:20:00
2:50 AM,55.4,51.8,88,29.95,6.2,Variable,1.2,-,N/A,,Partly Cloudy,0,2013-05-08 00:50:00
3:20 AM,53.6,51.8,94,29.95,6.2,NE,3.5,-,N/A,,Partly Cloudy,50,2013-05-08 01:20:00
4:50 AM,53.6,51.8,94,29.95,6.2,Variable,2.3,-,N/A,,Partly Cloudy,0,2013-05-08 02:50:00
5:20 AM,51.8,50.0,94,29.95,6.2,Variable,2.3,-,N/A,,Partly Cloudy,0,2013-05-08 03:20:00
5:50 AM,53.6,51.8,94,29.95,6.2,NNW,2.3,-,N/A,,Partly Cloudy,340,2013-05-08 03:50:00
6:20 AM,51.8,51.8,100,29.95,5.0,Calm,Calm,-,N/A,,Partly Cloudy,0,2013-05-08 04:20:00
6:50 AM,51.8,51.8,100,29.98,5.0,Calm,Calm,-,N/A,,Partly Cloudy,0,2013-05-08 04:50:00
7:20 AM,55.4,53.6,94,29.98,4.3,Variable,1.2,-,N/A,,Unknown,0,2013-05-08 05:20:00
7:50 AM,57.2,55.4,94,29.98,5.0,Variable,2.3,-,N/A,,Partly Cloudy,0,2013-05-08 05:50:00
8:20 AM,59.0,55.4,88,29.98,5.0,Variable,2.3,-,N/A,,Partly Cloudy,0,2013-05-08 06:20:00
8:50 AM,62.6,57.2,82,29.98,5.0,Variable,2.3,-,N/A,,Partly Cloudy,0,2013-05-08 06:50:00
9:20 AM,64.4,57.2,77,29.98,5.0,Variable,2.3,-,N/A,,Partly Cloudy,0,2013-05-08 07:20:00
9:50 AM,66.2,57.2,73,29.98,6.2,Variable,2.3,-,N/A,,Partly Cloudy,0,2013-05-08 07:50:00
10:20 AM,68.0,57.2,68,29.98,6.2,Variable,2.3,-,N/A,,Partly Cloudy,0,2013-05-08 08:20:00
10:50 AM,69.8,57.2,64,29.98,6.2,Variable,2.3,-,N/A,,Partly Cloudy,0,2013-05-08 08:50:00
11:20 AM,69.8,57.2,64,29.98,6.2,Variable,2.3,-,N/A,,Partly Cloudy,0,2013-05-08 09:20:00
11:50 AM,71.6,57.2,60,29.95,6.2,Variable,2.3,-,N/A,,Partly Cloudy,0,2013-05-08 09:50:00
12:20 PM,71.6,57.2,60,29.95,6.2,Variable,4.6,-,N/A,,Scattered Clouds,0,2013-05-08 10:20:00
12:50 PM,73.4,57.2,57,29.95,6.2,Variable,3.5,-,N/A,,Scattered Clouds,0,2013-05-08 10:50:00
1:20 PM,73.4,55.4,53,29.95,6.2,Variable,4.6,-,N/A,,Scattered Clouds,0,2013-05-08 11:20:00
1:50 PM,75.2,57.2,53,29.92,6.2,Variable,3.5,-,N/A,,Scattered Clouds,0,2013-05-08 11:50:00
2:20 PM,77.0,55.4,47,29.92,6.2,Variable,4.6,-,N/A,,Scattered Clouds,0,2013-05-08 12:20:00
2:50 PM,75.2,53.6,47,29.92,6.2,Variable,3.5,-,N/A,,Mostly Cloudy,0,2013-05-08 12:50:00
3:20 PM,73.4,57.2,57,29.92,6.2,Variable,2.3,-,N/A,Rain,Light Rain,0,2013-05-08 13:20:00
3:50 PM,66.2,59.0,78,29.92,6.2,NNE,5.8,-,N/A,Rain,Rain Showers,20,2013-05-08 13:50:00
4:20 PM,68.0,62.6,83,29.92,6.2,Variable,3.5,-,N/A,,Scattered Clouds,0,2013-05-08 14:20:00
4:50 PM,71.6,60.8,69,29.92,6.2,SSW,6.9,-,N/A,,Scattered Clouds,210,2013-05-08 14:50:00
5:20 PM,73.4,57.2,57,29.92,6.2,WSW,5.8,-,N/A,,Partly Cloudy,240,2013-05-08 15:20:00
5:50 PM,71.6,59.0,64,29.92,6.2,South,4.6,-,N/A,,Scattered Clouds,170,2013-05-08 15:50:00
6:20 PM,69.8,60.8,73,29.92,6.2,East,5.8,-,N/A,Rain,Light Rain,100,2013-05-08 16:20:00
6:50 PM,69.8,62.6,78,29.92,6.2,ENE,4.6,-,N/A,,Scattered Clouds,70,2013-05-08 16:50:00
7:20 PM,69.8,60.8,73,29.92,6.2,Variable,2.3,-,N/A,,Scattered Clouds,0,2013-05-08 17:20:00
7:50 PM,68.0,60.8,78,29.92,6.2,Variable,2.3,-,N/A,,Scattered Clouds,0,2013-05-08 17:50:00
8:20 PM,68.0,59.0,73,29.92,6.2,Variable,2.3,-,N/A,,Scattered Clouds,0,2013-05-08 18:20:00
8:50 PM,66.2,59.0,78,29.95,6.2,SSW,4.6,-,N/A,,Scattered Clouds,210,2013-05-08 18:50:00
9:20 PM,66.2,59.0,78,29.98,6.2,Variable,2.3,-,N/A,,Scattered Clouds,0,2013-05-08 19:20:00
9:50 PM,66.2,59.0,78,29.98,6.2,South,3.5,-,N/A,,Scattered Clouds,190,2013-05-08 19:50:00
10:20 PM,64.4,59.0,83,30.01,6.2,SE,3.5,-,N/A,,Scattered Clouds,140,2013-05-08 20:20:00
10:50 PM,62.6,59.0,88,30.01,6.2,South,4.6,-,N/A,,Partly Cloudy,180,2013-05-08 20:50:00
11:20 PM,62.6,57.2,82,30.01,-9999.0,West,3.5,-,N/A,,Clear,260,2013-05-08 21:20:00
11:50 PM,60.8,57.2,88,29.98,4.3,ENE,1.2,-,N/A,,Unknown,70,2013-05-08 21:50:00